Location: Battersea Observatory
(44.4318°N, 76.3841°W)
Time: 22:25:03
(UTC-04:00)

Tiros 1 despin weight - Pass Details

Date: 24 January 2022
Orbit: 592 x 639 km, 48.2° (Epoch: 25 May)

Event Time Altitude Azimuth Distance (km) Brightness Sun altitude
Rises 22:37:45 0° 292° (WNW) 2,930 - -57.1°
Reaches altitude 10° 22:40:07 10° 287° (WNW) 2,025 - -57.4°
Maximum altitude 22:44:40 53° 211° (SSW) 785 - -58.0°
Drops below altitude 10° 22:49:13 10° 135° (SE) 2,026 - -58.6°
Sets 22:51:34 0° 131° (SE) 2,931 - -58.8°
